STARLINK-1795, 46696

Orbit data source: Space-Track

STARLINK-1795, 46696 is a payload satellite owned by SpaceX/Seattle (US) in LEO that was launched on Sun, 18 Oct 2020 UTC via an FALCON 9 launch vehicle from the Air Force Eastern Test Range (AFETR). Payloads include a variety of satellites, spacecraft, and rockets equipped with specific instruments for various scientific and technological missions. These include communications satellites like Starlink; space stations such as the ISS; scientific satellites like the Hubble; Earth observation satellites from companies like Planet Labs, Umbra, and HawkEye 360; GPS; miniature CubeSats for education and research; and military/defense satellites.

Loading next visibility...
STARLINK-1795 details
Identifier
46696, 2020-073AC
Orbit
LEO
Last TLE update22 hours ago
Origin
Flag of USSpaceX/Seattle (US)
ManufacturerSpaceX/Seattle
MissionOperational Commercial Communications
Bus & MotorSTARLINK, Unknown motor
Mass260 kg wet, ~248 kg dry
Launch date (UTC)
2020-10-18 (4 years ago)
Launch vehicle
FALCON 9
Launch site
Air Force Eastern Test Range (AFETR)
Object type
Payload
Rocket body
Debris
Shape & HBRBox + 1 Pan, 8.86 m
Radar Cross Section13.562 m², Large (>1 m²)

Expand to show TLE details & history

TLE from 22 hours ago
0 STARLINK-1795
1 46696U 20073AC  25039.69509849  .00000801  00000-0  72678-4 0  9995
2 46696  53.0562 190.3300 0001366  82.4898 277.6247 15.06392691238027
Epoch: 2025-02-08T16:40Z
Definitive object data (Epoch: 2025-02-08T16:40:56.509Z)
Latitude0.00004°
Longitude161.05529°
Altitude547.988 km
Speed7.589 km/s
True Right ascension12h 41m 19s
True Declination0° 00' 00"
Sunlit
Object was in full shadow at TLE epoch
Visualization TLE readout
Latitude-2.13098°
Longitude-21.37386°
Altitude548.53 km
Speed7.589 km/s
Apparent Right ascension02h 08m 38s
Apparent Declination-22° 47' 15"
Sunlit
Object is in daylight
Visualization observer readout
Local Sidereal Time16:30:35
Azimuth70.968° E
Elevation-55.517°
Doppler factor1
Orbital elements
Apogee altitude548.45 km
Perigee altitude546.558 km
Semi-major axis6,925.641 km
Eccentricity0.0001366
Inclination53.0562°
RAAN190.33°
Arg. of periapsis82.4898°
True anomaly277.60918°
Mean anomaly277.6247°
Eccentric anomaly277.61694°
Mean motion3.76576 °/min
BSTAR0.000072678
Orbital period95.6 mins
Loading maneuver chart data...
Loading historical data...
Loading historical data...
Loading historical data...
Loading historical data...
Loading historical data...
Loading historical data...
Loading historical data...

STARLINK-1795 Visibility forecast

Observer location: undefined°, undefined

Span
Click to sort rows by Start time (UTC) header in descending order
Start Az.
Max El. time (UTC)
Max El. Az.
Max El.
End time (UTC)
End Az.
5 mins2025-02-09 18:39:22.163Z337.204° NNW2025-02-09 18:41:22.163Z35.124° NE33.336°2025-02-09 18:44:22.163Z99.277° ESE
5 mins2025-02-09 20:18:22.163Z278.622° WNW2025-02-09 20:20:22.163Z238.807° WSW25.71°2025-02-09 20:23:22.163Z176.134° S
6 mins2025-02-10 11:51:22.163Z201.27° SSW2025-02-10 11:53:22.163Z147.635° SSE37.736°2025-02-10 11:57:22.163Z59.774° ENE
5 mins2025-02-10 13:31:22.163Z289.681° WNW2025-02-10 13:33:22.163Z335.345° NNW25.376°2025-02-10 13:36:22.163Z29.78° NE
|